Simultaneous Nadir Overpasses (SNOs) Predictions

Prediction of SNOs between GOES-15 and NOAA-20 Satellite Orbit:

Table of predicted SNOs for the next 14.0 days since TLE Epoch: 8/20/2022
Index Date Time (GOES-15) GOES-15 Lat,Lon NOAA-20 Lat,Lon Distance(km) Time Diff (sec)
1 08/21/2022 21:58:17 -0.39,-128.04 -0.39,-127.93 12.14 80
2 08/24/2022 10:01:22 0.38,-128.03 0.55,-128.68 74.32 80
3 08/25/2022 09:39:58 0.38,-128.02 -0.50,-124.16 439.92 80
4 08/26/2022 22:01:54 -0.38,-127.98 -0.74,-129.46 168.99 80
5 08/27/2022 21:45:51 -0.38,-127.97 0.31,-124.94 345.96 80
6 08/29/2022 10:07:39 0.38,-127.98 0.89,-130.21 254.55 80
7 08/30/2022 09:46:15 0.38,-127.96 -0.10,-125.68 259.48 80
8 08/31/2022 22:08:12 -0.38,-127.90 -1.07,-130.99 351.51 80
9 09/01/2022 21:52:08 -0.38,-127.89 -0.07,-126.46 162.77 80
